Weather History for Dothan, AL

Change the Weather History Date:

Thursday, July 12, 2012

  Actual Average Record
Temperature  
Mean Temperature 82 °F 82 °F  
Max Temperature 91 °F 92 °F 103 °F (1966)
Min Temperature 73 °F 72 °F 62 °F (1953)
Cooling Degree Days 17 17  
Month to date cooling degree days 215 203  
Year to date cooling degree days 1318 1060  
Since 1 June cooling degree days 646 647  
Growing Degree Days 32 (Base 50)    
Moisture  
Dew Point 71 °F    
Average Humidity 79    
Maximum Humidity 94    
Minimum Humidity 48    
Precipitation  
Precipitation 0.01 in 0.20 in 1.63 in (1948)
Month to date precipitation 2.09 2.50  
Year to date precipitation 21.44 30.46  
Sea Level Pressure  
Sea Level Pressure 30.06 in    
Wind  
Wind Speed 6 mph (ENE)    
Max Wind Speed 16 mph    
Max Gust Speed 24 mph    
Visibility 10 miles    
Events Rain , Thunderstorm    
T = Trace of Precipitation, MM = Missing Value Source: NWS Daily Summary

Daily Weather History Graph

Daily Weather History Graph

Search for Another Location

Airport:

Trip Planner

Search our weather history database for the weather conditions in past years. The results will help you decide how hot, cold, wet, or windy it might be!

Date:

Astronomy

Jul. 12, 2012 Rise Set
Actual Time 5:46 AM CDT 7:48 PM CDT
Civil Twilight 5:19 AM CDT 8:15 PM CDT
Nautical Twilight 4:45 AM CDT 8:48 PM CDT
Astronomical Twilight 4:10 AM CDT 9:24 PM CDT
Moon 12:42 AM CDT (7/12) 2:26 PM CDT (7/12)
Length of Visible Light 14h 56m
Length of Day
14h 01m
Waning Crescent, 35% of the Moon is Illuminated
Jul 12
Waning Crescent
Jul 18
New
Jul 26
First Quarter
Aug 1
Full
Aug 9
Last Quarter

Hourly Weather History & Observations

Time (CDT) Temp. Heat Index Dew Point Humidity Pressure Visibility Wind Dir Wind Speed Gust Speed Precip Events Conditions
12:33 AM 73.4 °F - 71.6 °F 94% 30.07 in 10.0 mi NW 8.1 mph 16.1 mph N/A   Mostly Cloudy
12:45 AM 73.4 °F - 71.6 °F 94% 30.07 in 10.0 mi NW 4.6 mph - N/A   Overcast
12:53 AM 73.9 °F - 71.1 °F 91% 30.05 in 10.0 mi Calm Calm - N/A   Mostly Cloudy
1:02 AM 73.4 °F - 71.6 °F 94% 30.06 in 10.0 mi ENE 5.8 mph - N/A   Scattered Clouds
1:53 AM 73.0 °F - 71.1 °F 93% 30.04 in 10.0 mi Calm Calm - N/A   Scattered Clouds
2:15 AM 73.4 °F - 71.6 °F 94% 30.05 in 10.0 mi NE 4.6 mph - N/A   Mostly Cloudy
2:37 AM 73.4 °F - 69.8 °F 88% 30.06 in 10.0 mi ENE 5.8 mph - N/A   Overcast
2:53 AM 73.9 °F - 70.0 °F 87% 30.04 in 10.0 mi ENE 5.8 mph - N/A   Overcast
3:37 AM 73.4 °F - 71.6 °F 94% 30.05 in 10.0 mi ENE 3.5 mph - N/A   Overcast
3:53 AM 73.9 °F - 71.1 °F 91% 30.04 in 10.0 mi ENE 3.5 mph - N/A   Overcast
4:53 AM 73.9 °F - 71.1 °F 91% 30.04 in 10.0 mi East 5.8 mph - N/A   Mostly Cloudy
5:53 AM 73.0 °F - 71.1 °F 93% 30.06 in 10.0 mi ESE 4.6 mph - N/A   Overcast
6:53 AM 73.0 °F - 71.1 °F 93% 30.06 in 10.0 mi SE 5.8 mph - N/A   Overcast
7:09 AM 73.4 °F - 71.6 °F 94% 30.07 in 10.0 mi SE 4.6 mph - N/A   Overcast
7:53 AM 73.9 °F - 71.1 °F 91% 30.07 in 10.0 mi ESE 5.8 mph - N/A   Overcast
8:53 AM 77.0 °F - 71.1 °F 82% 30.07 in 10.0 mi Variable 3.5 mph - N/A   Mostly Cloudy
9:16 AM 78.8 °F - 71.6 °F 78% 30.09 in 10.0 mi Variable 4.6 mph - N/A   Partly Cloudy
9:53 AM 82.0 °F 86.7 °F 72.0 °F 71% 30.07 in 10.0 mi East 5.8 mph - N/A   Partly Cloudy
10:53 AM 84.0 °F 89.0 °F 71.1 °F 65% 30.09 in 10.0 mi SSE 8.1 mph - N/A   Overcast
11:10 AM 84.2 °F 88.4 °F 69.8 °F 62% 30.10 in 10.0 mi South 5.8 mph - N/A   Overcast
11:23 AM 84.2 °F 88.4 °F 69.8 °F 62% 30.10 in 10.0 mi SE 6.9 mph - N/A   Overcast
11:53 AM 87.1 °F 91.3 °F 69.1 °F 55% 30.07 in 10.0 mi Calm Calm - N/A   Scattered Clouds
12:53 PM 86.0 °F 90.1 °F 69.1 °F 57% 30.06 in 10.0 mi WSW 3.5 mph - N/A   Scattered Clouds
1:53 PM 90.0 °F 93.6 °F 68.0 °F 48% 30.03 in 10.0 mi Calm Calm - N/A   Clear
2:53 PM 87.1 °F 92.8 °F 71.1 °F 59% 30.01 in 10.0 mi ESE 11.5 mph - N/A Thunderstorm Mostly Cloudy
3:14 PM 84.2 °F 90.9 °F 73.4 °F 70% 30.03 in 10.0 mi SSE 11.5 mph - N/A   Scattered Clouds
3:42 PM 82.4 °F 88.2 °F 73.4 °F 74% 30.03 in 10.0 mi South 4.6 mph - 0.01 in Rain , Thunderstorm Light Thunderstorms and Rain
3:53 PM 82.0 °F 86.7 °F 72.0 °F 71% 30.03 in 10.0 mi NNW 9.2 mph - 0.01 in Thunderstorm Overcast
4:03 PM 82.4 °F 86.3 °F 69.8 °F 66% 30.05 in 10.0 mi NW 16.1 mph 24.2 mph N/A   Overcast
4:53 PM 84.9 °F 90.1 °F 71.1 °F 63% 30.01 in 10.0 mi NNE 5.8 mph - N/A   Mostly Cloudy
5:53 PM 82.9 °F 87.0 °F 70.0 °F 65% 30.02 in 10.0 mi SW 6.9 mph - N/A   Clear
6:53 PM 79.0 °F - 70.0 °F 74% 30.05 in 10.0 mi WSW 6.9 mph - N/A   Clear
7:53 PM 78.1 °F - 68.0 °F 71% 30.07 in 10.0 mi NNW 10.4 mph - N/A   Clear
8:53 PM 77.0 °F - 71.1 °F 82% 30.09 in 10.0 mi North 6.9 mph - N/A   Mostly Cloudy
9:53 PM 75.9 °F - 70.0 °F 82% 30.09 in 10.0 mi North 5.8 mph - N/A   Partly Cloudy
10:53 PM 75.9 °F - 70.0 °F 82% 30.07 in 10.0 mi NNW 9.2 mph - N/A   Clear
11:53 PM 73.9 °F - 69.1 °F 85% 30.08 in 10.0 mi NNE 3.5 mph - N/A   Scattered Clouds